SCP
0 0 0 0 0 0 0 0 0 0 0 0 0 0 0 0 0 0 0 0 0 0 0 0 0 0 0 0 0 0 0 0 0 0 0 0 0 0
0 0 0 0 0 0 0 0 0 0 0 0 0 0 0 0 0 0 0 0 0 0 0 0 0 0 0 0 0 0 0 0 0 0 0 0 0 0
0 0 0 0 0 0 0 0 0 0 0 0 0 0 0 0 0 0 0 0 0 0 0 0 0 0 0 0 0 0 0 0 0 0 0 0 0 0
0 0 0 0 0 0 0 0 0 0 0 0 0 0 0 0 0 0 0 0 0 0 0 0 0 0 0 0 0 0 0 0 0 0 0 0 0 0
0 0 0 0 0 0 0 0 0 0 0 0 0 0 0 0 0 0 0 0 0 0 0 0 0 0 0 0 0 0 0 0 0 0 0 0 0 0
0 0 0 0 0 0 0 0 0 0 0 0 0 0 0 0 0 0 0 0 0 0 0 0 0 0 0 0 0 0 0 0 0 0 0 0 0 0
0 0 0 0 0 0 0 0 0 0 0 0 0 0 0 0 0 0 0 0 0 0 0 0 0 0 0 0 0 0 0 0 0 0 0 0 0 0
0 0 0 0 0 0 0 0 0 0 0 0 0 0 0 0 0 0 0 0 0 0 0 0 0 0 0 0 0 0 0 0 0 0 0 0 0 0
0 0 0 0 0 0 0 0 0 0 0 0 0 0 0 0 0 0 0 0 0 0 0 0 0 0 0 0 0 0 0 0 0 0 0 0 0 0
0 0 0 0 0 0 0 0 0 0 0 0 0 0 0 0 0 0 0 0 0 0 0 0 0 0 0 0 0 0 0 0 0 0 0 0 0 0
0 0 0 0 0 0 0 0 0 0 0 0 0 0 0 0 0 0 0 0 0 0 0 0 0 0 0 0 0 0 0 0 0 0 0 0 0 0
0 0 0 0 0 0 0 0 0 0 0 0 0 0 0 0 0 0 0 0 0 0 0 0 0 0 0 0 0 0 0 0 0 0 0 0 0 0
0 0 0 0 0 0 0 0 0 0 0 0 0 0 0 0 0 0 0 0 0 0 0 0 0 0 0 0 0 0 0 0 0 0 0 0 0 0
0 0 0 0 0 0 0 0 0 0 0 0 0 0 0 0 0 0 0 0 0 0 0 0 0 0 0 0 0 0 0 0 0 0 0 0 0 0
0 0 0 0 0 0 0 0 0 0 0 0 0 0 0 0 0 0 0 0 0 0 0 0 0 0 0 0 0 0 0 0 0 0 0 0 0 0
0 0 0 0 0 0 0 0 0 0 0 0 0 0 0 0 0 0 0 0 0 0 0 0 0 0 0 0 0 0 0 0 0 0 0 0 0 0
0 0 0 0 0 0 0 0 0 0 0 0 0 0 0 0 0 0 0 0 0 0 0 0 0 0 0 0 0 0 0 0 0 0 0 0 0 0
0 0 0 0 0 0 0 0 0 0 0 0 0 0 0 0 0 0 0 0 0 0 0 0 0 0 0 0 0 0 0 0 0 0 0 0 0 0
0 0 0 0 0 0 0 0 0 0 0 0 0 0 0 0 0 0 0 0 0 0 0 0 0 0 0 0 0 0 0 0 0 0 0 0 0 0
0 0 0 0 0 0 0 0 0 0 0 0 0 0 0 0 0 0 0 0 0 0 0 0 0 0 0 0 0 0 0 0 0 0 0 0 0 0
0 0 0 0 0 0 0 0 0 0 0 0 0 0 0 0 0 0 0 0 0 0 0 0 0 0 0 0 0 0 0 0 0 0 0 0 0 0
0 0 0 0 0 0 0 0 0 0 0 0 0 0 0 0 0 0 0 0 0 0 0 0 0 0 0 0 0 0 0 0 0 0 0 0 0 -0
0 0 0 0 0 0 0 0 0 0 0 0 0 0 0 0 0 0 0 0 0 0 0 0 0 0 0 0 0 0 0 0 0 0 0 0 -0 -0
Wind_Speed
9 9 7 6 6 6 5 6 9 8 10 9 6 8 9 8 15 10 9 16 17 16 14 13 11 9 8 7 5 4 3 3 3 4 4 5 6 7
6 8 9 6 6 6 6 5 6 8 9 9 8 7 10 10 16 10 10 19 18 17 15 14 13 11 10 8 7 6 5 4 4 4 5 6 6 7
8 9 10 9 7 6 6 6 6 6 6 5 4 5 10 10 10 9 8 9 9 16 16 16 14 13 12 10 9 7 6 5 4 5 5 6 7 7
9 10 11 8 11 8 7 8 7 7 6 6 5 5 7 12 11 10 7 7 7 15 18 17 16 15 14 13 11 9 8 6 5 5 5 6 7 7
10 11 11 10 12 9 9 9 8 7 5 5 6 4 3 8 10 7 7 5 7 10 16 18 18 17 16 15 13 11 9 8 6 6 6 6 7 7
10 11 11 12 13 11 10 10 8 9 8 5 5 5 4 7 10 9 8 8 8 7 11 13 16 18 18 17 15 12 11 10 9 8 7 7 7 7
11 12 12 14 16 14 11 10 10 10 9 8 6 5 7 10 13 10 10 8 7 7 7 8 8 8 10 15 15 14 13 12 11 9 8 7 7 8
13 13 13 14 17 22 24 20 19 16 15 14 12 11 14 11 11 11 11 9 8 10 10 9 8 9 8 7 14 17 16 14 12 10 8 7 7 8
14 13 12 11 14 13 18 24 24 29 27 19 17 17 13 14 17 16 16 12 10 10 11 9 9 10 7 9 18 18 16 14 12 10 9 8 8 8
15 16 16 15 14 15 13 15 17 19 23 20 18 14 10 13 18 17 17 9 4 5 9 8 8 7 6 6 16 18 16 15 13 11 9 8 8 9
16 16 17 17 23 26 19 17 19 18 25 26 21 15 14 19 19 10 11 11 6 7 7 7 7 5 5 5 9 17 16 15 13 10 8 8 9 9
15 15 19 24 26 28 20 18 20 18 12 13 18 19 14 15 27 20 16 15 8 8 10 9 7 7 6 4 5 6 8 12 11 9 7 8 8 4
14 13 14 25 29 30 27 19 23 18 10 13 13 11 10 10 14 15 13 11 13 7 12 13 8 7 7 6 5 6 6 5 4 4 5 7 8 7
16 13 15 26 28 29 24 25 30 24 11 12 13 14 14 13 10 10 8 4 3 5 13 15 9 11 10 7 7 6 5 5 4 4 3 5 8 10
15 23 26 29 28 23 27 29 22 15 13 13 14 14 12 10 8 8 8 6 6 6 10 6 7 11 8 8 8 6 5 4 4 4 4 4 4 4
17 16 24 29 26 22 16 18 15 13 13 13 11 9 8 9 10 10 9 10 8 6 7 6 6 9 6 6 7 6 6 5 4 4 3 4 4 5
16 12 10 10 11 11 12 12 12 13 13 12 11 11 11 11 10 9 9 10 9 9 8 6 5 4 5 6 6 6 6 5 4 4 3 4 5 6
26 15 13 11 11 11 11 11 11 12 12 12 11 12 12 12 10 9 10 9 9 10 9 10 9 6 4 1 4 6 6 5 4 4 4 4 6 6
21 15 13 12 10 9 9 9 10 10 10 10 11 11 11 12 12 12 12 11 10 10 10 10 10 9 8 6 6 11 7 5 5 4 4 4 6 7
13 14 12 11 9 8 7 7 7 8 9 9 10 11 12 12 13 13 13 12 10 9 9 9 9 7 6 8 6 5 10 7 5 4 4 5 7 12
11 12 11 10 8 7 7 7 7 8 9 9 10 11 11 12 12 12 11 14 11 9 10 9 7 8 7 7 6 3 2 6 6 4 4 5 7 8
9 9 8 8 7 7 7 7 7 8 9 9 9 10 10 10 11 12 11 11 10 9 9 8 9 8 5 5 5 5 5 4 6 10 12 11 7 6
7 6 4 4 5 5 6 7 8 7 8 8 8 9 9 9 9 10 10 10 10 11 10 9 8 6 5 5 5 4 4 4 4 5 7 12 18 22
Wind_Direction
236 242 243 233 224 215 192 168 162 178 209 209 197 194 188 179 190 182 179 192 196 199 203 206 208 210 211 214 219 229 247 274 299 315 326 332 335 338
235 240 244 242 237 225 214 204 188 184 201 197 194 185 180 186 191 180 188 190 196 200 205 209 211 215 218 220 223 230 245 264 286 304 315 322 326 329
242 241 242 237 238 231 222 215 206 187 194 187 172 167 171 180 184 181 184 180 189 203 209 212 214 218 221 222 224 228 238 253 274 292 303 310 313 317
245 245 246 238 236 226 219 219 215 206 180 171 173 162 182 185 178 180 185 182 182 204 209 212 214 219 222 223 225 228 234 242 255 271 284 291 299 303
244 245 245 238 239 228 221 220 216 214 203 170 172 164 165 172 169 178 186 189 191 201 206 210 213 218 222 222 224 226 230 232 237 247 259 274 285 293
248 246 244 240 240 229 225 222 213 212 211 191 173 167 161 168 173 178 191 198 197 195 208 208 213 218 221 222 222 224 225 224 226 233 245 260 274 285
257 251 248 246 242 234 229 220 211 215 211 206 193 170 176 173 187 185 195 189 200 190 194 203 203 207 209 218 219 219 218 217 218 225 237 252 266 279
264 258 252 249 250 248 241 229 216 216 215 215 211 203 199 189 180 181 178 173 203 194 189 201 193 203 202 200 213 212 208 207 212 220 231 245 261 276
264 262 257 248 241 244 248 245 234 227 221 216 222 219 201 190 184 185 190 190 197 177 174 191 187 202 193 203 206 204 201 204 209 216 226 242 261 276
259 257 257 254 243 239 238 240 241 237 231 225 228 225 207 194 194 194 193 178 89 155 164 176 177 189 180 190 206 202 202 203 205 212 225 245 264 277
257 254 252 253 251 245 239 238 241 243 242 233 228 223 216 200 188 179 175 173 176 183 178 160 159 153 162 181 201 204 203 200 201 211 229 250 267 282
257 252 248 250 251 248 240 236 238 237 226 232 231 228 217 208 197 193 186 189 179 179 182 164 155 147 163 180 183 195 199 198 200 213 236 257 273 274
256 252 247 251 252 250 243 236 238 233 218 219 223 218 207 203 203 200 198 194 189 188 174 167 158 159 157 153 173 184 180 175 182 204 235 260 274 273
253 250 247 253 254 253 249 240 238 235 223 216 218 217 214 211 204 193 187 195 186 179 175 171 164 167 154 152 162 167 175 178 182 195 202 251 270 274
261 254 252 254 255 256 254 246 237 226 217 214 216 217 213 204 190 177 158 126 100 132 162 173 166 160 153 149 147 149 152 172 187 200 207 220 228 249
283 274 266 261 259 250 244 244 230 219 213 214 213 206 192 188 188 184 178 165 146 138 150 157 161 153 141 138 139 146 150 154 168 182 198 222 237 246
279 277 267 254 247 244 239 229 219 212 210 209 203 195 191 190 188 181 174 170 169 164 159 158 151 121 116 138 143 152 159 180 196 203 215 240 247 252
276 267 260 252 247 243 237 223 212 209 206 203 198 193 188 184 176 169 170 175 177 173 172 167 156 136 110 25 166 151 168 187 195 209 218 239 261 263
266 262 258 251 245 241 235 218 208 205 200 198 192 185 177 172 168 169 174 181 183 178 177 173 174 162 155 163 193 194 174 172 182 199 211 228 261 274
255 255 254 249 240 230 221 210 201 196 194 189 181 175 171 170 172 175 178 181 179 171 169 175 182 177 160 152 140 168 187 169 171 200 230 251 263 274
248 247 242 236 228 213 201 196 192 187 181 176 174 172 171 171 172 174 175 176 170 168 169 171 164 134 100 97 103 118 159 195 198 207 233 262 276 274
256 250 239 219 204 193 183 176 173 172 172 171 168 166 166 167 167 166 168 168 167 161 153 143 140 135 127 137 143 144 155 183 230 254 262 262 263 269
275 250 223 187 172 166 164 163 161 159 158 156 154 155 156 155 155 156 156 154 152 148 142 139 140 142 145 148 155 162 180 203 232 249 254 262 269 275